Weather History for Mobile Downtown, AL

Change the Weather History Date:

Monday, October 15, 2012

  Actual Average Record
Temperature  
Mean Temperature 74 °F -  
Max Temperature 87 °F 77 °F 88 °F (2011)
Min Temperature 60 °F 57 °F 46 °F (2010)
Cooling Degree Days 9    
Growing Degree Days 24 (Base 50)    
Moisture  
Dew Point 63 °F    
Average Humidity 69    
Maximum Humidity 93    
Minimum Humidity 38    
Precipitation  
Precipitation 0.01 in - - ()
Sea Level Pressure  
Sea Level Pressure 29.97 in    
Wind  
Wind Speed 5 mph (NNW)    
Max Wind Speed 15 mph    
Max Gust Speed 20 mph    
Visibility 10 miles    
Events      
Averages and records for this station are not official NWS values.
T = Trace of Precipitation, MM = Missing Value Source: NWS Daily Summary

Daily Weather History Graph

Daily Weather History Graph

Search for Another Location

Airport:

Trip Planner

Search our weather history database for the weather conditions in past years. The results will help you decide how hot, cold, wet, or windy it might be!

Date:

Astronomy

Oct. 15, 2012 Rise Set
Actual Time 6:54 AM CDT 6:20 PM CDT
Civil Twilight 6:30 AM CDT 6:44 PM CDT
Nautical Twilight 6:02 AM CDT 7:12 PM CDT
Astronomical Twilight 5:34 AM CDT 7:40 PM CDT
Moon 7:01 AM CDT (10/15) 6:25 PM CDT (10/15)
Length of Visible Light 12h 13m
Length of Day
11h 25m
New Moon, 0% of the Moon is Illuminated
Oct 15
New Moon
Oct 21
First Quarter
Oct 29
Full
Nov 6
Last Quarter
Nov 13
New

Hourly Weather History & Observations

Time (CDT) Temp. Heat Index Dew Point Humidity Pressure Visibility Wind Dir Wind Speed Gust Speed Precip Events Conditions
12:53 AM 75.0 °F - 71.1 °F 87% 30.01 in 10.0 mi SSW 3.5 mph - N/A   Clear
1:53 AM 73.0 °F - 70.0 °F 90% 30.01 in 10.0 mi Calm Calm - N/A   Mostly Cloudy
2:53 AM 73.9 °F - 71.1 °F 91% 29.99 in 10.0 mi Calm Calm - N/A   Scattered Clouds
3:53 AM 73.0 °F - 70.0 °F 90% 29.98 in 10.0 mi Calm Calm - N/A   Clear
4:53 AM 73.0 °F - 71.1 °F 93% 29.98 in 10.0 mi WSW 3.5 mph - 0.01 in   Mostly Cloudy
5:53 AM 73.0 °F - 71.1 °F 93% 29.99 in 10.0 mi SW 3.5 mph - N/A   Scattered Clouds
6:53 AM 73.9 °F - 71.1 °F 91% 30.00 in 10.0 mi NW 9.2 mph - N/A   Scattered Clouds
7:53 AM 73.0 °F - 69.1 °F 87% 30.00 in 10.0 mi WNW 4.6 mph - 0.00 in   Partly Cloudy
8:53 AM 75.9 °F - 69.1 °F 79% 30.01 in 10.0 mi NNW 11.5 mph - N/A   Scattered Clouds
9:53 AM 79.0 °F - 69.1 °F 72% 30.01 in 10.0 mi NNW 10.4 mph - N/A   Scattered Clouds
10:53 AM 81.0 °F 83.3 °F 66.9 °F 62% 30.01 in 10.0 mi ENE 6.9 mph - N/A   Scattered Clouds
11:53 AM 82.9 °F 84.6 °F 64.9 °F 54% 29.99 in 10.0 mi NNW 3.5 mph - N/A   Scattered Clouds
12:53 PM 84.9 °F 86.1 °F 64.0 °F 49% 29.96 in 10.0 mi NNW 15.0 mph 18.4 mph N/A   Partly Cloudy
1:53 PM 84.9 °F 85.4 °F 62.1 °F 46% 29.93 in 10.0 mi NW 9.2 mph - N/A   Scattered Clouds
2:53 PM 86.0 °F 85.4 °F 59.0 °F 40% 29.92 in 10.0 mi NNW 11.5 mph 16.1 mph N/A   Partly Cloudy
3:53 PM 84.9 °F 84.2 °F 57.9 °F 40% 29.91 in 10.0 mi North 11.5 mph 18.4 mph N/A   Partly Cloudy
4:53 PM 82.0 °F 81.3 °F 54.0 °F 38% 29.92 in 10.0 mi NNW 11.5 mph 19.6 mph N/A   Partly Cloudy
5:53 PM 79.0 °F - 55.0 °F 44% 29.93 in 10.0 mi North 10.4 mph - N/A   Clear
6:53 PM 75.9 °F - 55.0 °F 48% 29.93 in 10.0 mi North 5.8 mph - N/A   Clear
7:53 PM 69.1 °F - 57.0 °F 65% 29.95 in 10.0 mi NNW 5.8 mph - N/A   Clear
8:53 PM 66.0 °F - 55.0 °F 68% 29.96 in 10.0 mi NNW 6.9 mph - N/A   Clear
9:53 PM 64.9 °F - 55.0 °F 70% 29.98 in 10.0 mi NNW 6.9 mph - N/A   Clear
10:53 PM 62.1 °F - 54.0 °F 75% 29.99 in 10.0 mi NNW 8.1 mph - N/A   Clear
11:53 PM 60.1 °F - 53.1 °F 78% 30.00 in 10.0 mi NNW 6.9 mph - N/A   Clear